FLI40I EKVG-BIKF

Flight info

Callsign FLI40I
Flight time 1h 16m
Altitude 34000
Route MY DCT ING DCT NASBU NASBU2H
Aircraft A320/M-SDE3FGHIRWY/LB1

Departure

Time 2026-04-30 18:24
Airport Vágar Airport (EKVG)

Arrival

Time 2026-04-30 19:41
Airport Keflavik International Airport (BIKF)
Time Latitude Longitude Altitude Speed Heading
2026-04-30 18:08 62.06712 -7.28024 289 ft 0 kts 76°
2026-04-30 18:20 62.06712 -7.28023 289 ft 1 kts 78°
2026-04-30 18:20 62.06700 -7.28002 293 ft 4 kts 156°
2026-04-30 18:20 62.06663 -7.28049 294 ft 9 kts 216°
2026-04-30 18:21 62.06592 -7.28083 289 ft 13 kts 192°
2026-04-30 18:21 62.06508 -7.28140 287 ft 12 kts 200°
2026-04-30 18:21 62.06443 -7.28059 294 ft 12 kts 123°
2026-04-30 18:21 62.06408 -7.27920 297 ft 13 kts 118°
2026-04-30 18:22 62.06344 -7.27671 295 ft 25 kts 118°
2026-04-30 18:22 62.06155 -7.26894 273 ft 30 kts 118°
2026-04-30 18:22 62.06073 -7.26568 264 ft 24 kts 118°
2026-04-30 18:23 62.06002 -7.26294 251 ft 21 kts 118°
2026-04-30 18:23 62.05958 -7.26058 244 ft 10 kts 95°
2026-04-30 18:23 62.05939 -7.26012 246 ft 2 kts 179°
2026-04-30 18:23 62.05937 -7.26023 246 ft 1 kts 241°
2026-04-30 18:24 62.06304 -7.27498 294 ft 130 kts 298°
2026-04-30 18:24 62.06802 -7.29513 567 ft 168 kts 290°
2026-04-30 18:24 62.07210 -7.31944 1452 ft 175 kts 283°
2026-04-30 18:25 62.07558 -7.34404 2400 ft 172 kts 282°
2026-04-30 18:25 62.08291 -7.39886 3092 ft 216 kts 281°
2026-04-30 18:25 62.08714 -7.43078 3602 ft 236 kts 282°
2026-04-30 18:26 62.09712 -7.50180 5080 ft 256 kts 282°
2026-04-30 18:26 62.10199 -7.53832 6050 ft 256 kts 280°
2026-04-30 18:26 62.10673 -7.57499 6974 ft 255 kts 281°
2026-04-30 18:27 62.12241 -7.64403 8704 ft 263 kts 291°
2026-04-30 18:27 62.13064 -7.67910 9510 ft 264 kts 287°
2026-04-30 18:28 62.14618 -7.75293 10634 ft 289 kts 286°
2026-04-30 18:28 62.15478 -7.79365 10872 ft 312 kts 287°
2026-04-30 18:28 62.17380 -7.87939 12116 ft 326 kts 289°
2026-04-30 18:29 62.18388 -7.92333 12861 ft 329 kts 289°
2026-04-30 18:29 62.21470 -8.05727 14923 ft 338 kts 288°
2026-04-30 18:30 62.23543 -8.14870 16200 ft 343 kts 288°
2026-04-30 18:30 62.25638 -8.24172 17467 ft 349 kts 287°
2026-04-30 18:31 62.26696 -8.28884 18093 ft 352 kts 287°
2026-04-30 18:31 62.28837 -8.38438 19203 ft 357 kts 287°
2026-04-30 18:32 62.30994 -8.48078 20277 ft 363 kts 286°
2026-04-30 18:32 62.32092 -8.52999 20815 ft 366 kts 285°
2026-04-30 18:32 62.34297 -8.62974 21885 ft 372 kts 285°
2026-04-30 18:33 62.35409 -8.68028 22389 ft 375 kts 285°
2026-04-30 18:33 62.37662 -8.78259 23374 ft 380 kts 284°
2026-04-30 18:33 62.38801 -8.83449 23827 ft 383 kts 284°
2026-04-30 18:34 62.39930 -8.88593 24224 ft 385 kts 284°
2026-04-30 18:34 62.42229 -8.99095 25036 ft 389 kts 284°
2026-04-30 18:34 62.43382 -9.04394 25416 ft 390 kts 283°
2026-04-30 18:35 62.44535 -9.09714 25792 ft 392 kts 283°
2026-04-30 18:35 62.45691 -9.15069 26166 ft 394 kts 283°
2026-04-30 18:35 62.46852 -9.20460 26530 ft 395 kts 283°
2026-04-30 18:36 62.49166 -9.31239 27232 ft 399 kts 283°
2026-04-30 18:36 62.50327 -9.36702 27565 ft 401 kts 283°
2026-04-30 18:36 62.52659 -9.47745 28230 ft 405 kts 283°
2026-04-30 18:37 62.53836 -9.53299 28549 ft 407 kts 283°
2026-04-30 18:37 62.55027 -9.58894 28856 ft 409 kts 283°
2026-04-30 18:37 62.56220 -9.64510 29156 ft 411 kts 283°
2026-04-30 18:37 62.57416 -9.70163 29443 ft 413 kts 283°
2026-04-30 18:38 62.58609 -9.75837 29707 ft 414 kts 283°
2026-04-30 18:38 62.59797 -9.81542 29989 ft 416 kts 283°
2026-04-30 18:38 62.60986 -9.87283 30228 ft 418 kts 283°
2026-04-30 18:38 62.62169 -9.92985 30439 ft 419 kts 283°
2026-04-30 18:39 62.63375 -9.98778 30644 ft 421 kts 283°
2026-04-30 18:39 62.64585 -10.04584 30900 ft 421 kts 283°
2026-04-30 18:39 62.65787 -10.10391 31177 ft 420 kts 283°
2026-04-30 18:39 62.66984 -10.16178 31459 ft 420 kts 283°
2026-04-30 18:40 62.68179 -10.21982 31730 ft 420 kts 283°
2026-04-30 18:40 62.69368 -10.27781 31993 ft 420 kts 283°
2026-04-30 18:40 62.70553 -10.33591 32266 ft 419 kts 283°
2026-04-30 18:40 62.71732 -10.39414 32540 ft 419 kts 283°
2026-04-30 18:41 62.72906 -10.45232 32816 ft 419 kts 283°
2026-04-30 18:41 62.74079 -10.51054 33085 ft 419 kts 284°
2026-04-30 18:41 62.75238 -10.56803 33346 ft 419 kts 284°
2026-04-30 18:41 62.76408 -10.62618 33619 ft 419 kts 284°
2026-04-30 18:42 62.77578 -10.68445 33898 ft 419 kts 284°
2026-04-30 18:42 62.79911 -10.80091 34083 ft 417 kts 284°
2026-04-30 18:42 62.81068 -10.85902 34076 ft 416 kts 284°
2026-04-30 18:45 62.93592 -11.50021 34069 ft 416 kts 284°
2026-04-30 18:46 62.95849 -11.61745 34068 ft 416 kts 284°
2026-04-30 18:46 62.98073 -11.73425 34075 ft 416 kts 284°
2026-04-30 18:47 63.00295 -11.85192 34069 ft 416 kts 284°
2026-04-30 18:47 63.02520 -11.96975 34071 ft 416 kts 284°
2026-04-30 18:48 63.04729 -12.08742 34071 ft 416 kts 284°
2026-04-30 18:48 63.06931 -12.20557 34067 ft 416 kts 284°
2026-04-30 18:49 63.09110 -12.32364 34059 ft 415 kts 284°
2026-04-30 18:49 63.10918 -12.42193 34053 ft 415 kts 284°
2026-04-30 18:50 63.13088 -12.54027 34049 ft 415 kts 284°
2026-04-30 18:50 63.15243 -12.65861 34048 ft 415 kts 284°
2026-04-30 18:51 63.17386 -12.77711 34049 ft 415 kts 284°
2026-04-30 18:51 63.19521 -12.89585 34049 ft 415 kts 284°
2026-04-30 18:52 63.21630 -13.01412 34048 ft 415 kts 284°
2026-04-30 18:52 63.23739 -13.13310 34044 ft 414 kts 284°
2026-04-30 18:53 63.25847 -13.25247 34043 ft 414 kts 284°
2026-04-30 18:53 63.27941 -13.37186 34042 ft 414 kts 284°
2026-04-30 18:54 63.30014 -13.49063 34036 ft 414 kts 284°
2026-04-30 18:54 63.32080 -13.61000 34030 ft 413 kts 284°
2026-04-30 18:55 63.34140 -13.72947 34028 ft 413 kts 284°
2026-04-30 18:55 63.37206 -13.90897 34009 ft 413 kts 284°
2026-04-30 18:56 63.40242 -14.08858 34012 ft 413 kts 284°
2026-04-30 18:57 63.43263 -14.26877 34018 ft 413 kts 284°
2026-04-30 18:57 63.45258 -14.38899 34008 ft 412 kts 284°
2026-04-30 18:58 63.48225 -14.56906 34002 ft 413 kts 284°
2026-04-30 18:59 63.51185 -14.75022 34004 ft 413 kts 284°
2026-04-30 19:00 63.55103 -14.99246 33993 ft 413 kts 284°
2026-04-30 19:01 63.58954 -15.23454 33987 ft 412 kts 284°
2026-04-30 19:02 63.61826 -15.41706 33986 ft 412 kts 284°
2026-04-30 19:03 63.65625 -15.66066 33976 ft 412 kts 284°
2026-04-30 19:04 63.69366 -15.90488 33960 ft 412 kts 284°
2026-04-30 19:05 63.73057 -16.14862 33953 ft 412 kts 284°
2026-04-30 19:06 63.76720 -16.39409 33949 ft 412 kts 284°
2026-04-30 19:06 63.79433 -16.57849 33942 ft 412 kts 284°
2026-04-30 19:07 63.80650 -16.70283 33944 ft 405 kts 273°
2026-04-30 19:07 63.80967 -16.76635 33940 ft 406 kts 273°
2026-04-30 19:08 63.82232 -17.02036 33946 ft 406 kts 273°
2026-04-30 19:09 63.83164 -17.21108 33948 ft 405 kts 272°
2026-04-30 19:09 63.83762 -17.33821 33948 ft 405 kts 272°
2026-04-30 19:10 63.84927 -17.59149 33950 ft 405 kts 272°
2026-04-30 19:11 63.85772 -17.78181 33953 ft 404 kts 272°
2026-04-30 19:12 63.86319 -17.90865 33951 ft 404 kts 272°
2026-04-30 19:12 63.86852 -18.03557 33951 ft 403 kts 272°
2026-04-30 19:13 63.87892 -18.28851 33918 ft 403 kts 272°
2026-04-30 19:13 63.88146 -18.35174 33645 ft 402 kts 272°
2026-04-30 19:14 63.88395 -18.41417 33381 ft 401 kts 272°
2026-04-30 19:14 63.88645 -18.47709 33109 ft 400 kts 272°
2026-04-30 19:14 63.88890 -18.54007 32841 ft 399 kts 272°
2026-04-30 19:14 63.89131 -18.60299 32576 ft 399 kts 272°
2026-04-30 19:15 63.89366 -18.66568 32311 ft 399 kts 272°
2026-04-30 19:15 63.89827 -18.79109 31679 ft 397 kts 272°
2026-04-30 19:15 63.90050 -18.85311 31148 ft 390 kts 272°
2026-04-30 19:16 63.90270 -18.91422 30621 ft 384 kts 272°
2026-04-30 19:16 63.90482 -18.97446 30088 ft 379 kts 272°
2026-04-30 19:16 63.90882 -19.09128 29022 ft 366 kts 272°
2026-04-30 19:17 63.91077 -19.14844 28529 ft 360 kts 272°
2026-04-30 19:17 63.91461 -19.26021 27567 ft 349 kts 272°
2026-04-30 19:17 63.91645 -19.31480 27099 ft 344 kts 272°
2026-04-30 19:18 63.91938 -19.40393 26342 ft 336 kts 272°
2026-04-30 19:18 63.92158 -19.47361 25762 ft 330 kts 272°
2026-04-30 19:18 63.92322 -19.52533 25313 ft 326 kts 272°
2026-04-30 19:19 63.92483 -19.57655 24906 ft 322 kts 272°
2026-04-30 19:19 63.92642 -19.62691 24497 ft 318 kts 272°
2026-04-30 19:19 63.92942 -19.72550 23727 ft 310 kts 272°
2026-04-30 19:20 63.93086 -19.77426 23310 ft 306 kts 272°
2026-04-30 19:20 63.93228 -19.82253 22921 ft 301 kts 272°
2026-04-30 19:20 63.93497 -19.91586 22219 ft 295 kts 271°
2026-04-30 19:21 63.93628 -19.96245 21869 ft 294 kts 271°
2026-04-30 19:21 63.93886 -20.05469 21165 ft 290 kts 271°
2026-04-30 19:22 63.94132 -20.14577 20458 ft 286 kts 271°
2026-04-30 19:22 63.94492 -20.27985 19388 ft 281 kts 271°
2026-04-30 19:23 63.94845 -20.41302 18041 ft 280 kts 271°
2026-04-30 19:24 63.95090 -20.50149 17118 ft 278 kts 271°
2026-04-30 19:24 63.95210 -20.54529 16676 ft 277 kts 271°
2026-04-30 19:24 63.95440 -20.63187 15838 ft 276 kts 271°
2026-04-30 19:25 63.95771 -20.76912 14806 ft 292 kts 271°
2026-04-30 19:26 63.95992 -20.86101 14312 ft 292 kts 271°
2026-04-30 19:26 63.96211 -20.95319 13811 ft 291 kts 271°
2026-04-30 19:26 63.96316 -20.99928 13555 ft 291 kts 271°
2026-04-30 19:27 63.96595 -21.09137 12996 ft 292 kts 280°
2026-04-30 19:27 63.97877 -21.17899 12463 ft 293 kts 285°
2026-04-30 19:28 63.98548 -21.22282 12138 ft 291 kts 285°
2026-04-30 19:28 63.99879 -21.30963 11106 ft 289 kts 285°
2026-04-30 19:29 64.01185 -21.39524 10470 ft 277 kts 285°
2026-04-30 19:29 64.01800 -21.43580 10349 ft 265 kts 285°
2026-04-30 19:30 64.03550 -21.55223 9888 ft 258 kts 284°
2026-04-30 19:30 64.04701 -21.62956 9438 ft 256 kts 284°
2026-04-30 19:31 64.05838 -21.70613 8831 ft 255 kts 285°
2026-04-30 19:31 64.06401 -21.74409 8696 ft 256 kts 285°
2026-04-30 19:31 64.07535 -21.82101 8432 ft 255 kts 285°
2026-04-30 19:32 64.08100 -21.85945 8295 ft 255 kts 285°
2026-04-30 19:32 64.08662 -21.89784 8162 ft 255 kts 285°
2026-04-30 19:32 64.09226 -21.93646 8029 ft 254 kts 285°
2026-04-30 19:32 64.09599 -21.96195 7927 ft 254 kts 285°
2026-04-30 19:33 64.10155 -21.99994 7737 ft 251 kts 285°
2026-04-30 19:33 64.10890 -22.05043 7555 ft 253 kts 285°
2026-04-30 19:33 64.11264 -22.07617 7475 ft 253 kts 285°
2026-04-30 19:33 64.11995 -22.12677 7040 ft 252 kts 285°
2026-04-30 19:34 64.12368 -22.15252 6759 ft 251 kts 285°
2026-04-30 19:34 64.12913 -22.19004 6339 ft 251 kts 285°
2026-04-30 19:34 64.14003 -22.26576 5461 ft 249 kts 285°
2026-04-30 19:35 64.14542 -22.30347 5048 ft 248 kts 285°
2026-04-30 19:35 64.15067 -22.34010 4885 ft 236 kts 285°
2026-04-30 19:35 64.15569 -22.37493 4763 ft 224 kts 285°
2026-04-30 19:35 64.15988 -22.40856 4488 ft 216 kts 275°
2026-04-30 19:36 64.15977 -22.44242 4133 ft 212 kts 258°
2026-04-30 19:36 64.15547 -22.47410 3777 ft 210 kts 248°
2026-04-30 19:36 64.14549 -22.53666 3230 ft 205 kts 249°
2026-04-30 19:37 64.14036 -22.56633 3094 ft 196 kts 240°
2026-04-30 19:37 64.13177 -22.58951 2962 ft 190 kts 219°
2026-04-30 19:37 64.12007 -22.60292 2777 ft 189 kts 197°
2026-04-30 19:37 64.10686 -22.60544 2545 ft 191 kts 184°
2026-04-30 19:38 64.09344 -22.60539 2279 ft 193 kts 184°
2026-04-30 19:38 64.08011 -22.60536 2032 ft 192 kts 184°
2026-04-30 19:38 64.06712 -22.60523 1811 ft 179 kts 184°
2026-04-30 19:38 64.05497 -22.60503 1513 ft 166 kts 185°
2026-04-30 19:39 64.04398 -22.60523 1264 ft 153 kts 185°
2026-04-30 19:39 64.03369 -22.60528 1044 ft 142 kts 184°
2026-04-30 19:39 64.02398 -22.60522 795 ft 137 kts 184°
2026-04-30 19:39 64.01456 -22.60502 625 ft 135 kts 183°
2026-04-30 19:40 64.00518 -22.60532 449 ft 135 kts 182°
2026-04-30 19:40 63.99584 -22.60529 300 ft 134 kts 184°
2026-04-30 19:40 63.98680 -22.60551 179 ft 122 kts 184°
2026-04-30 19:40 63.97968 -22.60551 171 ft 78 kts 180°
2026-04-30 19:41 63.97572 -22.60539 174 ft 34 kts 178°
2026-04-30 19:41 63.97442 -22.60647 171 ft 18 kts 243°
2026-04-30 19:41 63.97459 -22.60892 166 ft 10 kts 300°
2026-04-30 19:41 63.97527 -22.60940 166 ft 12 kts
2026-04-30 19:42 63.97635 -22.60939 168 ft 24 kts 359°
2026-04-30 19:42 63.97821 -22.60941 170 ft 25 kts
2026-04-30 19:42 63.97989 -22.60940 169 ft 23 kts 359°
2026-04-30 19:42 63.98144 -22.60938 166 ft 22 kts
2026-04-30 19:43 63.98296 -22.60940 165 ft 21 kts 360°
2026-04-30 19:43 63.98431 -22.60935 166 ft 18 kts
2026-04-30 19:43 63.98550 -22.60938 165 ft 17 kts 358°
2026-04-30 19:44 63.98804 -22.60939 163 ft 16 kts 359°
2026-04-30 19:44 63.98856 -22.61074 161 ft 14 kts 268°
2026-04-30 19:44 63.98854 -22.61368 156 ft 22 kts 270°
2026-04-30 19:44 63.98853 -22.61747 151 ft 25 kts 270°
2026-04-30 19:45 63.98854 -22.62167 147 ft 28 kts 269°
2026-04-30 19:45 63.98853 -22.62607 140 ft 28 kts 270°
2026-04-30 19:45 63.98901 -22.62864 136 ft 16 kts
2026-04-30 19:45 63.99002 -22.62795 138 ft 16 kts 17°
2026-04-30 19:46 63.99121 -22.62714 140 ft 18 kts 18°
2026-04-30 19:46 63.99239 -22.62689 140 ft 16 kts 340°
2026-04-30 19:46 63.99342 -22.62746 140 ft 15 kts
2026-04-30 19:46 63.99438 -22.62669 140 ft 14 kts 20°
2026-04-30 19:47 63.99526 -22.62647 140 ft 10 kts 20°
2026-04-30 19:47 63.99543 -22.62563 140 ft 8 kts 85°
2026-04-30 19:47 63.99543 -22.62487 140 ft 0 kts 90°
2026-04-30 19:47 63.99543 -22.62470 140 ft 0 kts 90°